This is the latest recevied weather packets stored in our database for station/object N4TLC. If no packets are shown the sender has not sent any weather packets the latest 10 day(s).
| Time | Temp. | Humidity | Pressure | Rain* | Wind** | Luminosity | Snow |
|---|---|---|---|---|---|---|---|
| 1777676290 | 17.78° C | 51% | 1013.8 hPa | 0 mm | - | 105 W/m² | - |
| 1777675987 | 18.33° C | 51% | 1013.6 hPa | 0 mm | - | 139 W/m² | - |
| 1777675683 | 18.33° C | 51% | 1013.5 hPa | 0 mm | - | 152 W/m² | - |
| 1777675381 | 18.89° C | 49% | 1013.3 hPa | 0 mm | - | 173 W/m² | - |
| 1777675076 | 18.89° C | 49% | 1013.4 hPa | 0 mm | - | 192 W/m² | - |
| 1777674773 | 18.89° C | 49% | 1013.6 hPa | 0 mm | - | 202 W/m² | - |
| 1777674470 | 18.89° C | 49% | 1013.5 hPa | 0 mm | - | 222 W/m² | - |
| 1777674168 | 18.89° C | 49% | 1013.4 hPa | 0 mm | - | 260 W/m² | - |
| 1777673864 | 19.44° C | 48% | 1013.6 hPa | 0 mm | - | 276 W/m² | - |
| 1777673561 | 20° C | 47% | 1013.4 hPa | 0 mm | - | 292 W/m² | - |
| 1777673258 | 19.44° C | 49% | 1013.7 hPa | 0 mm | - | 316 W/m² | - |
| 1777672955 | 18.89° C | 48% | 1013.8 hPa | 0 mm | - | 335 W/m² | - |
| 1777672652 | 19.44° C | 48% | 1013.7 hPa | 0 mm | - | 369 W/m² | - |
| 1777672347 | 19.44° C | 47% | 1013.7 hPa | 0 mm | - | 401 W/m² | - |
| 1777672043 | 18.89° C | 49% | 1013.6 hPa | 0 mm | - | 388 W/m² | - |
| 1777671739 | 19.44° C | 47% | 1013.7 hPa | 0 mm | - | 342 W/m² | - |
| 1777671436 | 18.89° C | 49% | 1013.7 hPa | 0 mm | - | 466 W/m² | - |
| 1777671132 | 18.89° C | 48% | 1013.8 hPa | 0 mm | - | 381 W/m² | - |
| 1777670828 | 18.89° C | 48% | 1013.6 hPa | 0 mm | - | 265 W/m² | - |
| 1777670525 | 20° C | 46% | 1013.7 hPa | 0 mm | - | 353 W/m² | - |
| 1777670222 | 20° C | 45% | 1013.6 hPa | 0 mm | - | 524 W/m² | - |
| 1777669919 | 20.56° C | 43% | 1013.7 hPa | 0 mm | - | 475 W/m² | - |
| 1777669616 | 20.56° C | 43% | 1013.6 hPa | 0 mm | - | 439 W/m² | - |
| 1777669312 | 20° C | 43% | 1013.5 hPa | 0 mm | - | 522 W/m² | - |
| 1777669008 | 20° C | 44% | 1013.7 hPa | 0 mm | - | 566 W/m² | - |
* Rain latest hour (hover to see other rain measurements)
** Current wind speed in m/s (hover to see current wind gust speed)